Location: Unspecified
(0.0000°N, 0.0000°E)
Time: 20:58:03
(UTC+00:00)

Tiros 1 despin weight - Pass Details

Date: 29 May 2022
Orbit: 591 x 639 km, 48.2° (Epoch: 25 June)

Event Time Altitude Azimuth Distance (km) Brightness Sun altitude
Rises 00:55:50 0° 345° (NNW) 2,802 - -64.1°
Reaches altitude 10° 00:58:33 10° 1° (N) 1,906 - -63.8°
Maximum altitude 01:01:50 21° 51° (NE) 1,353 - -63.3°
Drops below altitude 10° 01:05:09 10° 100° (E) 1,924 - -62.8°
Sets 01:07:55 0° 116° (ESE) 2,836 - -62.4°
